timestamp,surface_pressure_avg,surface_temp_avg,battery_voltage,lat,long
2018-10-16 00:00:00+00:00,239.4347,10.3,13.05,47.84626,-54.09684
2018-10-16 00:10:00+00:00,238.6414,10.33,12.97,47.84626,-54.09684
2018-10-16 00:20:00+00:00,239.1881,10.37,13.05,47.84626,-54.09684
2018-10-16 00:30:00+00:00,241.4865,10.4,13.05,47.84626,-54.09684
2018-10-16 00:40:00+00:00,242.0231,10.4,13.05,47.84626,-54.09684
2018-10-16 00:50:00+00:00,243.2481,10.4,13.05,47.84626,-54.09684
2018-10-16 01:00:00+00:00,245.3031,10.34,12.97,47.84626,-54.09684
2018-10-16 01:10:00+00:00,252.4964,10.21,12.97,47.84626,-54.09684
2018-10-16 01:20:00+00:00,258.4497,10.2,13.05,47.84626,-54.09684
2018-10-16 01:30:00+00:00,259.648,10.1,13.05,47.84626,-54.09684
2018-10-16 01:40:00+00:00,259.873,10.12,13.05,47.84626,-54.09684
2018-10-16 01:50:00+00:00,267.0864,10.25,13.05,47.84626,-54.09684
2018-10-16 02:00:00+00:00,272.1697,10.38,12.97,47.84626,-54.09684
2018-10-16 02:10:00+00:00,274.3948,10.4,12.89,47.84626,-54.09684
2018-10-16 02:20:00+00:00,277.3614,10.4,12.97,47.84626,-54.09684
2018-10-16 02:30:00+00:00,287.3014,10.4,12.97,47.84626,-54.09684
2018-10-16 02:40:00+00:00,292.2064,10.4,13.05,47.84626,-54.09684
2018-10-16 02:50:00+00:00,293.0948,10.3,13.05,47.84626,-54.09684
2018-10-16 03:00:00+00:00,292.7714,10.33,12.97,47.84626,-54.09684
2018-10-16 03:10:00+00:00,296.813,10.41,12.89,47.84626,-54.09684
2018-10-16 03:20:00+00:00,297.5013,10.46,12.97,47.84626,-54.09684
2018-10-16 03:30:00+00:00,296.9763,10.46,12.97,47.84626,-54.09684
2018-10-16 03:40:00+00:00,300.0664,10.45,12.97,47.84626,-54.09684
2018-10-16 03:50:00+00:00,301.6647,10.47,13.05,47.84626,-54.09684
2018-10-16 04:00:00+00:00,298.6597,10.48,12.97,47.84626,-54.09684
2018-10-16 04:10:00+00:00,299.9913,10.47,12.89,47.84626,-54.09684
2018-10-16 04:20:00+00:00,305.7297,10.47,12.97,47.84626,-54.09684
2018-10-16 04:30:00+00:00,303.8864,10.48,12.97,47.84626,-54.09684
2018-10-16 04:40:00+00:00,304.7731,10.47,12.97,47.84626,-54.09684
2018-10-16 04:50:00+00:00,308.6214,10.48,12.97,47.84626,-54.09684
2018-10-16 05:00:00+00:00,312.5513,10.47,12.97,47.84626,-54.09684
2018-10-16 05:10:00+00:00,308.388,10.45,12.81,47.84626,-54.09684
2018-10-16 05:20:00+00:00,307.543,10.44,12.97,47.84626,-54.09684
2018-10-16 05:30:00+00:00,315.3214,10.45,12.97,47.84626,-54.09684
2018-10-16 05:40:00+00:00,320.4363,10.46,12.97,47.84626,-54.09684
2018-10-16 05:50:00+00:00,318.0546,10.4,12.97,47.84626,-54.09684
2018-10-16 06:00:00+00:00,313.5514,10.4,12.89,47.84626,-54.09684
2018-10-16 06:10:00+00:00,309.6913,10.37,12.81,47.84626,-54.09684
2018-10-16 06:20:00+00:00,304.9446,10.35,12.89,47.84626,-54.09684
2018-10-16 06:30:00+00:00,299.2164,10.34,12.89,47.84626,-54.09684
2018-10-16 06:40:00+00:00,293.5864,10.39,12.97,47.84626,-54.09684
2018-10-16 06:50:00+00:00,291.4064,10.4,12.97,47.84626,-54.09684
2018-10-16 07:00:00+00:00,283.658,10.4,12.89,47.84626,-54.09684
2018-10-16 07:10:00+00:00,279.3015,10.4,12.81,47.84626,-54.09684
2018-10-16 07:20:00+00:00,272.3664,10.4,12.89,47.84626,-54.09684
2018-10-16 07:30:00+00:00,266.1248,10.37,12.89,47.84626,-54.09684
2018-10-16 07:40:00+00:00,259.8881,10.3,12.89,47.84626,-54.09684
2018-10-16 07:50:00+00:00,256.1264,10.3,12.97,47.84626,-54.09684
2018-10-16 08:00:00+00:00,247.0681,10.3,12.89,47.84626,-54.09684
2018-10-16 08:10:00+00:00,244.0731,10.22,12.81,47.84626,-54.09684
2018-10-16 08:20:00+00:00,246.5264,10.2,12.89,47.84626,-54.09684
2018-10-16 08:30:00+00:00,240.1881,10.21,12.89,47.84626,-54.09684
2018-10-16 08:40:00+00:00,234.5331,10.25,12.89,47.84626,-54.09684
2018-10-16 08:50:00+00:00,235.2681,10.24,12.89,47.84626,-54.09684
2018-10-16 09:00:00+00:00,236.4482,10.29,12.81,47.84626,-54.09684
2018-10-16 09:10:00+00:00,238.2848,10.29,12.81,47.84626,-54.09684
2018-10-16 09:20:00+00:00,239.3264,10.3,12.89,47.84626,-54.09684
2018-10-16 09:30:00+00:00,240.1981,10.3,12.89,47.84626,-54.09684
2018-10-16 09:40:00+00:00,242.2464,10.3,12.89,47.84626,-54.09684
2018-10-16 09:50:00+00:00,246.4731,10.3,12.89,47.84626,-54.09684
2018-10-16 10:00:00+00:00,243.5998,10.3,12.81,47.84626,-54.09684
2018-10-16 10:10:00+00:00,242.5598,10.35,12.81,47.84626,-54.09684
2018-10-16 10:20:00+00:00,243.9914,10.37,12.81,47.84626,-54.09684
2018-10-16 10:30:00+00:00,250.248,10.4,12.89,47.84626,-54.09684
2018-10-16 10:40:00+00:00,249.5648,10.4,12.89,47.84626,-54.09684
2018-10-16 10:50:00+00:00,248.6931,10.4,12.89,47.84626,-54.09684
2018-10-16 11:00:00+00:00,251.0747,10.4,12.81,47.84626,-54.09684
2018-10-16 11:10:00+00:00,255.9114,10.39,12.81,47.84626,-54.09684
2018-10-16 11:20:00+00:00,261.8847,10.4,12.81,47.84626,-54.09684
2018-10-16 11:30:00+00:00,271.9247,10.4,12.89,47.84626,-54.09684
2018-10-16 11:40:00+00:00,278.8431,10.3,12.89,47.84626,-54.09684
2018-10-16 11:50:00+00:00,279.9564,10.29,12.89,47.84626,-54.09684
2018-10-16 12:00:00+00:00,277.6497,10.3,12.89,47.84626,-54.09684
2018-10-16 12:10:00+00:00,284.433,10.29,12.81,47.84626,-54.09684
2018-10-16 12:20:00+00:00,285.7714,10.29,12.89,47.84626,-54.09684
2018-10-16 12:30:00+00:00,281.263,10.27,12.89,47.84626,-54.09684
2018-10-16 12:40:00+00:00,283.5515,10.2,12.89,47.84626,-54.09684
2018-10-16 12:50:00+00:00,292.1031,10.2,12.89,47.84626,-54.09684
2018-10-16 13:00:00+00:00,294.7064,10.22,12.81,47.84626,-54.09684
2018-10-16 13:10:00+00:00,297.3647,10.23,12.81,47.84626,-54.09684
2018-10-16 13:20:00+00:00,308.8896,10.2,12.89,47.84626,-54.09684
2018-10-16 13:30:00+00:00,318.7746,10.2,12.89,47.84626,-54.09684
2018-10-16 13:40:00+00:00,321.3896,10.23,12.89,47.84626,-54.09684
2018-10-16 13:50:00+00:00,318.593,10.25,12.89,47.84626,-54.09684
2018-10-16 14:00:00+00:00,328.738,10.24,12.81,47.84626,-54.09684
2018-10-16 14:10:00+00:00,336.2513,10.2,12.81,47.84626,-54.09684
2018-10-16 14:20:00+00:00,339.8063,10.21,12.89,47.84626,-54.09684
2018-10-16 14:30:00+00:00,344.2747,10.23,12.89,47.84626,-54.09684
2018-10-16 14:40:00+00:00,354.838,10.25,12.89,47.84626,-54.09684
2018-10-16 14:50:00+00:00,357.1413,10.28,12.89,47.84626,-54.09684
2018-10-16 15:00:00+00:00,357.9547,10.29,12.89,47.84626,-54.09684
2018-10-16 15:10:00+00:00,365.6446,10.3,12.81,47.84626,-54.09684
2018-10-16 15:20:00+00:00,373.0263,10.3,12.89,47.84626,-54.09684
2018-10-16 15:30:00+00:00,373.5363,10.3,12.89,47.84626,-54.09684
2018-10-16 15:40:00+00:00,381.1862,10.3,12.89,47.84626,-54.09684
2018-10-16 15:50:00+00:00,380.5913,10.35,12.89,47.84626,-54.09684
2018-10-16 16:00:00+00:00,376.3862,10.37,12.89,47.84626,-54.09684
2018-10-16 16:10:00+00:00,391.4962,10.38,12.81,47.84626,-54.09684
2018-10-16 16:20:00+00:00,398.3063,10.4,12.89,47.84626,-54.09684
2018-10-16 16:30:00+00:00,384.2047,10.4,12.89,47.84626,-54.09684
2018-10-16 16:40:00+00:00,380.3213,10.4,12.89,47.84626,-54.09684
2018-10-16 16:50:00+00:00,388.5229,10.4,12.97,47.84626,-54.09684
2018-10-16 17:00:00+00:00,384.913,10.4,12.89,47.84626,-54.09684
2018-10-16 17:10:00+00:00,382.0646,10.4,12.81,47.84626,-54.09684
2018-10-16 17:20:00+00:00,385.8113,10.4,12.97,47.84626,-54.09684
2018-10-16 17:30:00+00:00,382.3146,10.4,12.97,47.84626,-54.09684
2018-10-16 17:40:00+00:00,371.1163,10.4,12.97,47.84626,-54.09684
2018-10-16 17:50:00+00:00,375.6712,10.4,13.05,47.84626,-54.09684
2018-10-16 18:00:00+00:00,373.1295,10.4,12.97,47.84626,-54.09684
2018-10-16 18:10:00+00:00,360.6479,10.4,12.89,47.84626,-54.09684
2018-10-16 18:20:00+00:00,360.9279,10.4,13.13,47.84626,-54.09684
2018-10-16 18:30:00+00:00,359.2479,10.4,13.13,47.84626,-54.09684
2018-10-16 18:40:00+00:00,336.7513,10.4,13.13,47.84626,-54.09684
2018-10-16 18:50:00+00:00,311.413,10.4,13.37,47.84626,-54.09684
2018-10-16 19:00:00+00:00,295.738,10.4,13.44,47.84626,-54.09684
2018-10-16 19:10:00+00:00,284.9597,10.4,13.37,47.84626,-54.09684
2018-10-16 19:20:00+00:00,278.2598,10.4,13.37,47.84626,-54.09684
2018-10-16 19:30:00+00:00,274.5464,10.4,13.44,47.84626,-54.09684
2018-10-16 19:40:00+00:00,273.7281,10.4,13.37,47.84626,-54.09684
2018-10-16 19:50:00+00:00,263.133,10.4,13.44,47.84626,-54.09684
2018-10-16 20:00:00+00:00,252.893,10.4,13.29,47.84626,-54.09684
2018-10-16 20:10:00+00:00,256.9481,10.4,13.21,47.84626,-54.09684
2018-10-16 20:20:00+00:00,254.5014,10.4,13.21,47.84626,-54.09684
2018-10-16 20:30:00+00:00,241.0564,10.4,13.21,47.84626,-54.09684
2018-10-16 20:40:00+00:00,232.4064,10.4,13.21,47.84626,-54.09684
2018-10-16 20:50:00+00:00,229.1581,10.4,13.13,47.84626,-54.09684
2018-10-16 21:00:00+00:00,224.0697,10.4,13.05,47.84626,-54.09684
2018-10-16 21:10:00+00:00,227.2464,10.4,12.97,47.84626,-54.09684
2018-10-16 21:20:00+00:00,226.6464,10.4,13.05,47.84626,-54.09684
2018-10-16 21:30:00+00:00,214.9315,10.4,12.97,47.84626,-54.09684
2018-10-16 21:40:00+00:00,208.9498,10.4,12.97,47.84626,-54.09684
2018-10-16 21:50:00+00:00,221.3998,10.38,12.97,47.84626,-54.09684
2018-10-16 22:00:00+00:00,228.6914,10.38,12.97,47.84626,-54.09684
2018-10-16 22:10:00+00:00,231.1748,10.38,12.81,47.84626,-54.09684
2018-10-16 22:20:00+00:00,235.6164,10.38,12.89,47.84626,-54.09684
2018-10-16 22:30:00+00:00,236.8431,10.38,12.89,47.84626,-54.09684
2018-10-16 22:40:00+00:00,230.0081,10.38,12.97,47.84626,-54.09684
2018-10-16 22:50:00+00:00,228.7015,10.36,12.97,47.84626,-54.09684
2018-10-16 23:00:00+00:00,233.5014,10.34,12.89,47.84626,-54.09684
2018-10-16 23:10:00+00:00,235.2731,10.34,12.81,47.84626,-54.09684
2018-10-16 23:20:00+00:00,232.5331,10.35,12.89,47.84626,-54.09684
2018-10-16 23:30:00+00:00,231.7331,10.34,12.89,47.84626,-54.09684
2018-10-16 23:40:00+00:00,230.1797,10.33,12.89,47.84626,-54.09684
2018-10-16 23:50:00+00:00,228.9915,10.34,12.89,47.84626,-54.09684
